Weather History for Rawlins, WY

Change the Weather History Date:

Thursday, September 27, 2012

  Actual Average Record
Temperature  
Mean Temperature 52 °F 51 °F  
Max Temperature 65 °F 65 °F 82 °F (2001)
Min Temperature 39 °F 36 °F 16 °F (1996)
Degree Days  
Heating Degree Days 13 14  
Month to date heating degree days 176 246  
Since 1 July heating degree days 187 339  
Cooling Degree Days 0 0  
Month to date cooling degree days 6 2  
Year to date cooling degree days 419 183  
Growing Degree Days 1 (Base 50)    
Moisture  
Dew Point 40 °F    
Average Humidity 70    
Maximum Humidity 100    
Minimum Humidity 39    
Precipitation  
Precipitation T in 0.03 in 0.51 in (1972)
Month to date precipitation 0.38 0.87  
Year to date precipitation 3.87 7.42  
Sea Level Pressure  
Sea Level Pressure 30.12 in    
Wind  
Wind Speed 4 mph (SW)    
Max Wind Speed 17 mph    
Max Gust Speed 23 mph    
Visibility 10 miles    
Events Rain , Thunderstorm    
T = Trace of Precipitation, MM = Missing Value Source: NWS Daily Summary

Daily Weather History Graph

Daily Weather History Graph

Search for Another Location

Airport:

Trip Planner

Search our weather history database for the weather conditions in past years. The results will help you decide how hot, cold, wet, or windy it might be!

Date:

Astronomy

Sep. 27, 2012 Rise Set
Actual Time 7:02 AM MDT 6:56 PM MDT
Civil Twilight 6:34 AM MDT 7:24 PM MDT
Nautical Twilight 6:01 AM MDT 7:56 PM MDT
Astronomical Twilight 5:29 AM MDT 8:29 PM MDT
Moon 5:30 PM MDT (9/27) 4:32 AM MDT (9/27)
Length of Visible Light 12h 49m
Length of Day
11h 54m
Waxing Gibbous, 94% of the Moon is Illuminated
Sep 27
Waxing Gibbous
Sep 29
Full
Oct 8
Last Quarter
Oct 15
New
Oct 21
First Quarter

Hourly Weather History & Observations

Time (MDT) Temp. Windchill Dew Point Humidity Pressure Visibility Wind Dir Wind Speed Gust Speed Precip Events Conditions
12:53 AM 43.0 °F - 41.0 °F 93% 30.09 in 10.0 mi Calm Calm - N/A   Clear
1:53 AM 43.0 °F - 42.1 °F 97% 30.10 in 10.0 mi Calm Calm - N/A   Clear
2:53 AM 42.1 °F - 39.9 °F 92% 30.11 in 10.0 mi Calm Calm - N/A   Partly Cloudy
3:53 AM 41.0 °F - 39.0 °F 93% 30.09 in 10.0 mi Calm Calm - N/A   Clear
4:53 AM 39.0 °F - 37.0 °F 93% 30.12 in 10.0 mi Calm Calm - N/A   Clear
5:53 AM 42.1 °F - 39.9 °F 92% 30.11 in 10.0 mi Calm Calm - N/A   Clear
6:53 AM 44.1 °F 40.8 °F 42.1 °F 93% 30.11 in 10.0 mi SW 5.8 mph - N/A   Overcast
7:53 AM 43.0 °F - 41.0 °F 93% 30.14 in 10.0 mi Calm Calm - N/A   Clear
8:53 AM 46.9 °F - 44.1 °F 90% 30.17 in 10.0 mi ESE 3.5 mph - N/A   Clear
9:53 AM 50.0 °F - 45.0 °F 83% 30.16 in 10.0 mi WSW 10.4 mph - N/A   Clear
10:53 AM 55.9 °F - 45.0 °F 67% 30.12 in 10.0 mi West 11.5 mph 17.3 mph N/A   Scattered Clouds
12:53 PM 61.0 °F - 39.9 °F 46% 30.11 in 10.0 mi West 10.4 mph - N/A   Mostly Cloudy
1:53 PM 62.1 °F - 37.9 °F 41% 30.08 in 10.0 mi West 9.2 mph - N/A   Clear
2:53 PM 63.0 °F - 37.0 °F 38% 30.06 in 10.0 mi WSW 8.1 mph - N/A   Partly Cloudy
3:53 PM 62.1 °F - 37.0 °F 39% 30.06 in 10.0 mi WSW 10.4 mph 19.6 mph N/A Thunderstorm Overcast
4:10 PM 62.6 °F - 35.6 °F 37% 30.23 in 10.0 mi West 11.5 mph 17.3 mph N/A   Overcast
4:53 PM 61.0 °F - 37.0 °F 41% 30.09 in 10.0 mi WSW 4.6 mph - N/A   Overcast
5:28 PM 55.4 °F - 41.0 °F 58% 30.24 in 10.0 mi West 8.1 mph - N/A   Partly Cloudy
5:53 PM 60.1 °F - 39.9 °F 47% 30.08 in 10.0 mi Calm Calm - N/A   Mostly Cloudy
6:53 PM 55.0 °F - 43.0 °F 64% 30.10 in 10.0 mi SSW 4.6 mph - N/A   Mostly Cloudy
7:53 PM 51.1 °F - 39.9 °F 66% 30.14 in 10.0 mi SE 4.6 mph - N/A   Scattered Clouds
8:53 PM 52.0 °F - 44.1 °F 74% 30.13 in 10.0 mi SW 3.5 mph - 0.00 in Rain Light Rain
9:53 PM 48.0 °F - 39.9 °F 74% 30.14 in 10.0 mi Calm Calm - 0.00 in   Clear
10:53 PM 48.9 °F - 42.1 °F 77% 30.11 in 10.0 mi West 4.6 mph - N/A   Clear
11:53 PM 46.9 °F - 39.9 °F 77% 30.11 in 10.0 mi SSW 3.5 mph - N/A   Clear